Weather History for Melilla, Spain

Change the Weather History Date:

Thursday, November 15, 2012

  Actual Average Record
Temperature  
Mean Temperature 65 °F -  
Max Temperature 70 °F 66 °F 77 °F (1998)
Min Temperature 60 °F 55 °F 50 °F (2001)
Growing Degree Days 15 (Base 50)    
Moisture  
Dew Point 59 °F    
Average Humidity 82    
Maximum Humidity 94    
Minimum Humidity 71    
Precipitation  
Precipitation 0.00 in 0.06 in - ()
Sea Level Pressure  
Sea Level Pressure 30.03 in    
Wind  
Wind Speed 4 mph ()    
Max Wind Speed 8 mph    
Max Gust Speed -    
Visibility 7.1 miles    
Events      
Averages and records for this station are not official NWS values.
T = Trace of Precipitation, MM = Missing Value Source: Averaged Metar Reports

Daily Weather History Graph

Daily Weather History Graph

Search for Another Location

Airport:

Trip Planner

Search our weather history database for the weather conditions in past years. The results will help you decide how hot, cold, wet, or windy it might be!

Date:

Astronomy

Nov. 15, 2012 Rise Set
Actual Time 7:47 AM CET 6:05 PM CET
Civil Twilight 7:20 AM CET 6:32 PM CET
Nautical Twilight 6:49 AM CET 7:03 PM CET
Astronomical Twilight 6:19 AM CET 7:33 PM CET
Moon 9:24 AM CET (11/15) 7:43 PM CET (11/15)
Length of Visible Light 11h 12m
Length of Day
10h 18m
Waxing Crescent, 4% of the Moon is Illuminated
Nov 15
Waxing Crescent
Nov 20
First Quarter
Nov 28
Full
Dec 6
Last Quarter
Dec 13
New

Hourly Weather History & Observations

Time (CET) Temp. Dew Point Humidity Pressure Visibility Wind Dir Wind Speed Gust Speed Precip Events Conditions
6:00 AM 60.8 °F 59.0 °F 94% 29.98 in 6.2 mi SE 1.2 mph - N/A   Scattered Clouds
7:00 AM 61 °F 56 °F 78% 30.01 in 19 mi ESE 2.3 mph - -   Partly Cloudy
7:00 AM 60.8 °F 59.0 °F 94% 30.01 in 6.2 mi ESE 2.3 mph - N/A   Scattered Clouds
7:30 AM 60.8 °F 59.0 °F 94% 30.01 in 6.2 mi Variable 2.3 mph - N/A   Scattered Clouds
8:00 AM 62.6 °F 59.0 °F 88% 30.01 in 6.2 mi Variable 2.3 mph - N/A   Scattered Clouds
8:30 AM 62.6 °F 59.0 °F 88% 30.01 in 6.2 mi ESE 3.5 mph - N/A   Scattered Clouds
9:00 AM 62.6 °F 60.8 °F 94% 30.04 in 6.2 mi Variable 2.3 mph - N/A   Scattered Clouds
9:30 AM 64.4 °F 59.0 °F 83% 30.04 in 6.2 mi ESE 3.5 mph - N/A   Scattered Clouds
10:00 AM 64.4 °F 59.0 °F 83% 30.04 in 6.2 mi SE 3.5 mph - N/A   Scattered Clouds
10:30 AM 66.2 °F 59.0 °F 78% 30.04 in 6.2 mi ESE 4.6 mph - N/A   Scattered Clouds
11:00 AM 66.2 °F 59.0 °F 78% 30.06 in 6.2 mi ESE 5.8 mph - N/A   Scattered Clouds
11:30 AM 66.2 °F 59.0 °F 78% 30.04 in 6.2 mi SE 5.8 mph - N/A   Scattered Clouds
12:00 PM 66.2 °F 60.8 °F 83% 30.04 in 6.2 mi SE 5.8 mph - N/A   Scattered Clouds
12:30 PM 66.2 °F 59.0 °F 78% 30.04 in 6.2 mi East 5.8 mph - N/A   Scattered Clouds
1:00 PM 66 °F 59 °F 71% 30.05 in 12 mi ESE 6.9 mph - -   Partly Cloudy
1:00 PM 66.2 °F 59.0 °F 78% 30.04 in 6.2 mi SE 6.9 mph - N/A   Scattered Clouds
1:30 PM 64.4 °F 59.0 °F 83% 30.04 in 6.2 mi East 4.6 mph - N/A   Scattered Clouds
2:00 PM 66.2 °F 57.2 °F 73% 30.04 in 6.2 mi East 5.8 mph - N/A   Scattered Clouds
2:30 PM 64.4 °F 59.0 °F 83% 30.01 in 6.2 mi ESE 4.6 mph - N/A   Scattered Clouds
3:00 PM 66.2 °F 57.2 °F 73% 30.01 in 6.2 mi ESE 4.6 mph - N/A   Scattered Clouds
3:30 PM 66.2 °F 59.0 °F 78% 30.01 in 6.2 mi ESE 4.6 mph - N/A   Scattered Clouds
4:00 PM 66.2 °F 59.0 °F 78% 30.01 in 6.2 mi ESE 4.6 mph - N/A   Scattered Clouds
4:30 PM 66.2 °F 59.0 °F 78% 30.01 in 6.2 mi East 4.6 mph - N/A   Scattered Clouds
5:00 PM 64.4 °F 59.0 °F 83% 30.01 in 6.2 mi East 3.5 mph - N/A   Scattered Clouds
5:30 PM 64.4 °F 59.0 °F 83% 30.01 in 6.2 mi ENE 8.1 mph - N/A   Scattered Clouds
6:00 PM 64.4 °F 59.0 °F 83% 30.01 in 6.2 mi ENE 8.1 mph - N/A   Scattered Clouds
6:30 PM 64.4 °F 59.0 °F 83% 30.04 in 6.2 mi ENE 8.1 mph - N/A   Scattered Clouds
7:00 PM 64 °F 58 °F 77% 30.04 in 16 mi ENE 8.1 mph - -   Partly Cloudy
7:00 PM 64.4 °F 59.0 °F 83% 30.04 in 6.2 mi ENE 8.1 mph - N/A   Scattered Clouds
7:30 PM 64.4 °F 59.0 °F 83% 30.04 in 6.2 mi ENE 8.1 mph - N/A   Scattered Clouds